GFSNIL_850_spd_333.txt.gz
Wind_Speed
19 20 22 23 24 24 25 25 25 26 26 25 26 27 28 29 30 31 33 34 34 35
14 15 15 16 18 20 21 21 22 23 24 25 25 26 27 29 29 30 30 31 32 34
7 7 11 15 18 21 22 22 22 23 23 24 24 25 26 27 28 29 29 30 31 32
1 6 10 15 19 21 22 22 24 24 24 25 25 24 25 26 27 29 29 29 30 32
2 5 11 17 21 23 23 23 23 23 24 25 25 24 24 25 26 28 29 29 30 32
6 8 13 19 23 24 24 23 23 23 23 23 24 24 24 25 27 28 29 30 31 32
9 11 15 20 24 26 24 23 22 22 22 22 22 22 23 24 26 28 29 31 32 33
12 13 17 22 26 26 24 22 21 21 21 22 23 23 23 24 27 29 31 32 33 33
13 15 18 24 26 24 21 21 21 21 22 24 25 26 26 26 28 29 31 32 32 32
15 16 20 25 25 22 21 22 22 23 23 24 24 24 26 27 30 31 31 32 32 33
18 18 21 25 24 22 22 21 22 22 22 24 25 25 26 27 28 30 30 29 28 29
21 20 23 24 24 22 21 23 23 23 23 24 24 24 25 27 28 27 27 27 26 25
21 21 24 24 24 22 23 22 22 22 22 23 24 24 25 25 26 26 25 23 21 21
20 22 23 24 23 22 21 21 21 22 21 22 22 23 23 23 22 22 22 20 19 17

GFSNIL_850_spd_336.txt.gz
Wind_Speed
14 15 16 16 17 17 18 19 20 22 24 23 23 24 24 25 26 29 31 32 32 33
12 11 9 8 11 15 17 18 18 19 20 22 23 23 24 26 27 27 28 29 30 31
9 6 3 5 11 15 17 19 19 18 19 19 20 21 23 24 25 27 27 28 29 30
10 7 3 5 12 17 19 19 19 19 20 19 19 19 21 22 24 25 26 27 28 30
13 8 5 6 13 18 21 22 21 20 19 19 19 19 20 21 22 24 26 26 28 31
15 11 7 8 13 18 21 21 20 20 19 19 19 19 19 20 21 22 24 25 28 30
17 13 10 10 14 18 21 20 18 17 18 19 19 19 19 20 22 24 26 27 28 30
18 17 14 12 14 18 22 20 19 18 18 18 19 20 21 22 23 25 27 28 29 29
22 19 17 14 15 18 21 21 20 19 19 20 20 19 20 22 24 26 27 28 27 26
25 21 17 16 16 19 22 22 21 20 20 20 20 21 22 22 24 25 26 26 26 26
29 25 21 19 18 20 22 23 22 21 20 20 19 20 21 22 24 25 25 25 25 25
32 28 24 21 20 21 22 23 22 20 19 19 18 19 21 22 24 24 24 23 22 21
35 30 26 21 21 21 23 24 21 18 18 19 19 19 21 22 22 23 22 20 19 18
35 30 24 21 21 21 24 23 19 17 17 18 19 21 22 21 21 22 22 20 19 18

GFSNIL_850_spd_342.txt.gz
Wind_Speed
17 16 13 11 10 8 9 10 11 13 13 13 13 14 16 16 17 17 19 20 21 23
19 18 14 11 11 7 7 8 9 11 11 11 12 13 14 15 15 17 17 18 19 21
20 18 16 15 12 8 6 7 8 9 10 11 12 13 14 13 14 16 16 17 18 19
23 21 20 19 16 11 7 6 7 8 9 10 11 13 13 13 13 15 15 16 18 18
25 24 24 23 19 15 9 7 7 8 9 10 11 12 14 13 14 16 16 17 19 19
29 29 28 26 22 18 12 9 8 9 10 11 12 13 14 15 15 16 17 17 19 20
32 32 30 28 25 21 15 12 10 10 11 12 13 14 15 16 16 16 17 17 19 20
34 33 32 31 29 25 21 15 13 13 13 13 14 16 17 17 17 16 16 17 18 19
36 35 36 35 34 30 25 21 17 15 15 14 15 17 17 17 16 16 17 18 18 19
39 39 39 38 37 34 30 25 21 18 17 17 16 18 18 17 17 17 17 18 19 18
43 43 42 42 41 38 33 29 25 21 19 19 18 18 17 17 17 17 17 18 18 19
46 46 46 45 44 41 37 32 28 22 21 20 19 18 17 18 18 17 16 16 16 18
47 47 49 47 46 43 39 33 28 24 22 21 19 18 18 19 18 16 15 15 14 16
47 47 47 47 46 44 40 35 30 25 23 22 20 18 19 19 18 16 15 13 14 15

GFSNIL_850_spd_345.txt.gz
Wind_Speed
23 23 21 18 16 13 11 9 10 10 10 9 9 10 11 12 12 14 14 15 16 18
26 25 23 19 18 15 12 9 9 8 8 8 9 10 11 11 11 13 13 13 14 16
27 26 24 22 21 17 13 10 9 8 7 8 9 10 11 11 12 12 13 14 14 15
29 28 26 25 23 20 17 13 10 8 7 8 8 10 11 12 13 13 14 15 16 15
31 30 29 29 26 24 21 17 12 10 8 8 8 10 12 13 14 15 16 16 17 16
34 33 33 31 28 28 25 21 17 13 10 9 9 10 12 14 15 16 16 17 17 17
36 36 35 33 31 31 29 25 21 17 13 11 11 11 13 15 15 16 16 17 18 18
37 36 36 35 34 34 34 30 24 21 16 14 13 13 14 15 15 16 17 18 18 19
39 38 39 38 37 37 38 34 30 26 20 17 15 16 17 16 16 17 18 18 19 20
41 41 41 41 40 40 42 39 37 31 25 20 18 18 19 18 17 18 19 20 20 19
43 44 43 43 43 43 44 44 41 35 30 25 21 20 20 20 18 18 19 20 21 20
44 46 45 45 46 46 46 46 44 40 34 28 24 22 21 21 20 19 20 19 20 20
44 45 46 46 47 47 47 47 45 41 37 31 27 24 23 22 21 20 18 19 20 20
44 45 44 44 47 47 47 47 46 43 39 34 29 26 24 23 22 19 19 20 19 18

GFSNIL_850_spd_348.txt.gz
Wind_Speed
28 27 26 24 22 21 19 15 16 14 12 10 10 9 9 8 9 11 11 12 13 14
30 30 29 26 24 23 20 17 17 14 12 10 9 9 8 8 8 10 11 11 12 13
31 31 30 28 28 25 22 20 18 15 12 11 10 9 8 8 9 9 11 12 12 13
32 32 31 31 29 27 25 23 20 17 14 12 11 9 9 9 9 9 11 13 14 14
33 33 33 33 31 30 28 26 23 20 17 14 12 11 10 9 10 10 11 13 15 14
35 36 36 35 33 32 30 29 28 24 20 16 14 13 12 11 11 11 12 14 15 15
38 38 38 36 35 34 33 33 32 28 23 20 18 16 14 13 12 12 13 14 15 16
39 39 38 38 37 36 36 36 36 33 30 26 23 19 17 15 14 14 14 14 16 17
41 40 40 40 40 39 39 39 39 40 36 31 27 23 20 17 16 16 16 15 17 17
39 41 42 42 42 42 42 42 42 43 41 37 31 27 23 21 19 18 17 18 17 17
38 40 41 44 45 44 44 44 45 46 46 42 37 31 26 24 22 20 20 19 18 18
37 38 42 45 44 44 45 46 47 48 48 47 42 36 30 27 24 22 21 20 20 20
36 39 40 40 41 42 44 47 47 48 49 49 45 40 35 31 27 25 23 21 21 20
30 33 37 38 40 40 42 45 47 48 49 49 47 43 39 34 29 26 23 22 21 20